When you browse on this site, cookies collect data to enhance your experience and personalize the content and advertising you see.
Visit our Privacy Policy to learn more. By continuing to use the site, you agree to this use of cookies and data.
EN

Hourly Weather Kulyabovka

Today, 25 September, Friday

Time Temperature Precipitation Wind Pressure Humidity
00:00 +14°C° 0 mm 3 mps 756 mmHg 60%
01:00 +13°C° 0 mm 3 mps 756 mmHg 64%
02:00 +13°C° 0 mm 3 mps 756 mmHg 68%
03:00 +12°C° 0 mm 3 mps 756 mmHg 68%
04:00 +12°C° 0 mm 3 mps 756 mmHg 69%
05:00 +12°C° 0 mm 3 mps 756 mmHg 70%
06:00 +12°C° 0 mm 3 mps 756 mmHg 71%
07:00 +13°C° 0 mm 3 mps 756 mmHg 65%
08:00 +15°C° 0 mm 4 mps 756 mmHg 58%
09:00 +18°C° 0 mm 4 mps 756 mmHg 54%
10:00 +19°C° 0 mm 4 mps 756 mmHg 49%
11:00 +21°C° 0 mm 4 mps 756 mmHg 45%
12:00 +22°C° 0 mm 5 mps 756 mmHg 40%
13:00 +23°C° 0 mm 5 mps 756 mmHg 38%
14:00 +23°C° 0 mm 5 mps 756 mmHg 37%
15:00 +25°C° 0 mm 5 mps 756 mmHg 35%
16:00 +22°C° 0 mm 4 mps 755 mmHg 39%
17:00 +21°C° 0 mm 4 mps 755 mmHg 43%
18:00 +19°C° 0 mm 4 mps 755 mmHg 46%
19:00 +18°C° 0 mm 4 mps 755 mmHg 47%
20:00 +17°C° 0 mm 4 mps 755 mmHg 48%
21:00 +15°C° 0 mm 4 mps 755 mmHg 49%
22:00 +14°C° 0 mm 4 mps 755 mmHg 49%
23:00 +14°C° 0 mm 4 mps 755 mmHg 49%

Tomorrow, 26 September, Saturday

Time Temperature Precipitation Wind Pressure Humidity
00:00 +13°C° 0 mm 4 mps 755 mmHg 50%
01:00 +13°C° 0 mm 4 mps 755 mmHg 50%
02:00 +12°C° 0 mm 4 mps 755 mmHg 51%
03:00 +12°C° 0 mm 4 mps 756 mmHg 51%
04:00 +12°C° 0 mm 4 mps 755 mmHg 52%
05:00 +11°C° 0 mm 4 mps 755 mmHg 53%
06:00 +11°C° 0 mm 4 mps 755 mmHg 55%
07:00 +13°C° 0 mm 4 mps 755 mmHg 52%
08:00 +14°C° 0 mm 5 mps 756 mmHg 49%
09:00 +16°C° 0 mm 5 mps 756 mmHg 46%
10:00 +19°C° 0 mm 5 mps 756 mmHg 42%
11:00 +21°C° 0 mm 6 mps 756 mmHg 38%
12:00 +23°C° 0 mm 6 mps 756 mmHg 34%
13:00 +24°C° 0 mm 6 mps 756 mmHg 33%
14:00 +24°C° 0 mm 6 mps 756 mmHg 31%
15:00 +26°C° 0 mm 6 mps 755 mmHg 30%
16:00 +23°C° 0 mm 6 mps 755 mmHg 32%
17:00 +21°C° 0 mm 5 mps 755 mmHg 35%
18:00 +20°C° 0 mm 4 mps 755 mmHg 37%
19:00 +19°C° 0 mm 5 mps 756 mmHg 38%
20:00 +17°C° 0 mm 5 mps 756 mmHg 38%
21:00 +16°C° 0 mm 5 mps 757 mmHg 38%
22:00 +16°C° 0 mm 5 mps 757 mmHg 38%
23:00 +15°C° 0 mm 5 mps 757 mmHg 38%

Day after tomorrow, 27 September, Sunday

Time Temperature Precipitation Wind Pressure Humidity
00:00 +14°C° 0 mm 4 mps 757 mmHg 38%
01:00 +13°C° 0 mm 5 mps 757 mmHg 40%
02:00 +12°C° 0 mm 5 mps 758 mmHg 42%
03:00 +12°C° 0 mm 5 mps 758 mmHg 43%
04:00 +10°C° 0 mm 5 mps 758 mmHg 45%
05:00 +9°C° 0 mm 5 mps 758 mmHg 48%
06:00 +9°C° 0 mm 5 mps 758 mmHg 50%
07:00 +12°C° 0 mm 5 mps 758 mmHg 46%
08:00 +13°C° 0 mm 6 mps 758 mmHg 42%
09:00 +15°C° 0 mm 6 mps 759 mmHg 38%
10:00 +16°C° 0 mm 7 mps 759 mmHg 35%
11:00 +18°C° 0 mm 7 mps 759 mmHg 31%
12:00 +21°C° 0 mm 7 mps 758 mmHg 27%
13:00 +21°C° 0 mm 7 mps 758 mmHg 27%
14:00 +22°C° 0 mm 7 mps 758 mmHg 28%
15:00 +22°C° 0 mm 7 mps 758 mmHg 28%
16:00 +21°C° 0 mm 6 mps 758 mmHg 31%
17:00 +19°C° 0 mm 5 mps 758 mmHg 34%
18:00 +17°C° 0 mm 5 mps 758 mmHg 37%
19:00 +16°C° 0 mm 5 mps 758 mmHg 37%
20:00 +15°C° 0 mm 5 mps 758 mmHg 38%
21:00 +14°C° 0 mm 5 mps 759 mmHg 38%
22:00 +14°C° 0 mm 5 mps 759 mmHg 37%
23:00 +13°C° 0 mm 5 mps 759 mmHg 36%

28 September, Monday

Time Temperature Precipitation Wind Pressure Humidity
00:00 +13°C° 0 mm 5 mps 759 mmHg 35%
01:00 +12°C° 0 mm 5 mps 759 mmHg 36%
02:00 +12°C° 0 mm 5 mps 759 mmHg 37%
03:00 +12°C° 0 mm 5 mps 759 mmHg 38%
04:00 +12°C° 0 mm 5 mps 759 mmHg 39%
05:00 +12°C° 0 mm 5 mps 759 mmHg 40%
06:00 +10°C° 0 mm 6 mps 759 mmHg 41%
07:00 +11°C° 0 mm 6 mps 759 mmHg 41%
08:00 +12°C° 0 mm 7 mps 759 mmHg 40%
09:00 +14°C° 0 mm 7 mps 759 mmHg 39%
10:00 +15°C° 0 mm 7 mps 759 mmHg 38%
11:00 +16°C° 0 mm 7 mps 759 mmHg 37%
12:00 +16°C° 0 mm 7 mps 759 mmHg 36%
13:00 +17°C° 0 mm 7 mps 759 mmHg 35%
14:00 +17°C° 0 mm 6 mps 759 mmHg 34%
15:00 +17°C° 0 mm 6 mps 759 mmHg 33%
16:00 +17°C° 0 mm 6 mps 759 mmHg 33%
17:00 +16°C° 0 mm 6 mps 759 mmHg 32%
18:00 +16°C° 0 mm 6 mps 759 mmHg 32%
19:00 +16°C° 0 mm 6 mps 759 mmHg 31%
20:00 +16°C° 0 mm 6 mps 759 mmHg 31%
21:00 +16°C° 0 mm 6 mps 759 mmHg 30%
22:00 +16°C° 0 mm 5 mps 759 mmHg 32%
23:00 +15°C° 0 mm 5 mps 759 mmHg 34%

29 September, Tuesday

Time Temperature Precipitation Wind Pressure Humidity
00:00 +15°C° 0 mm 5 mps 759 mmHg 36%
01:00 +14°C° 0 mm 5 mps 759 mmHg 39%
02:00 +13°C° 0 mm 5 mps 759 mmHg 41%
03:00 +13°C° 0 mm 5 mps 759 mmHg 43%
04:00 +12°C° 0 mm 5 mps 759 mmHg 45%
05:00 +12°C° 0 mm 5 mps 759 mmHg 47%
06:00 +12°C° 0 mm 5 mps 759 mmHg 48%
07:00 +12°C° 0 mm 5 mps 759 mmHg 47%
08:00 +13°C° 0 mm 6 mps 759 mmHg 45%
09:00 +14°C° 0 mm 7 mps 759 mmHg 44%
10:00 +15°C° 0 mm 7 mps 758 mmHg 41%
11:00 +16°C° 0 mm 7 mps 758 mmHg 38%
12:00 +17°C° 0 mm 7 mps 758 mmHg 35%
13:00 +17°C° 0 mm 6 mps 758 mmHg 33%
14:00 +19°C° 0 mm 6 mps 758 mmHg 32%
15:00 +20°C° 0 mm 5 mps 758 mmHg 30%
16:00 +19°C° 0 mm 4 mps 758 mmHg 31%
17:00 +18°C° 0 mm 4 mps 757 mmHg 32%
18:00 +17°C° 0 mm 4 mps 757 mmHg 33%
19:00 +17°C° 0 mm 4 mps 757 mmHg 31%
20:00 +16°C° 0 mm 5 mps 757 mmHg 30%
21:00 +16°C° 0 mm 5 mps 756 mmHg 28%
22:00 +15°C° 0 mm 6 mps 756 mmHg 28%
23:00 +15°C° 0 mm 6 mps 756 mmHg 27%

30 September, Wednesday

Time Temperature Precipitation Wind Pressure Humidity
00:00 +15°C° 0 mm 6 mps 756 mmHg 27%
01:00 +14°C° 0 mm 6 mps 756 mmHg 29%
02:00 +14°C° 0 mm 6 mps 755 mmHg 31%
03:00 +14°C° 0 mm 5 mps 755 mmHg 32%
04:00 +13°C° 0 mm 6 mps 755 mmHg 34%
05:00 +13°C° 0 mm 6 mps 755 mmHg 35%
06:00 +13°C° 0 mm 6 mps 755 mmHg 37%
07:00 +14°C° 0 mm 7 mps 755 mmHg 35%
08:00 +15°C° 0 mm 7 mps 755 mmHg 33%
09:00 +16°C° 0 mm 8 mps 755 mmHg 31%
10:00 +17°C° 0 mm 8 mps 755 mmHg 29%
11:00 +18°C° 0 mm 8 mps 755 mmHg 26%
12:00 +21°C° 0 mm 9 mps 755 mmHg 24%
13:00 +21°C° 0 mm 8 mps 755 mmHg 24%
14:00 +21°C° 0 mm 8 mps 754 mmHg 23%
15:00 +21°C° 0 mm 8 mps 754 mmHg 23%
16:00 +20°C° 0 mm 7 mps 754 mmHg 25%
17:00 +20°C° 0 mm 6 mps 754 mmHg 27%
18:00 +19°C° 0 mm 6 mps 754 mmHg 29%
19:00 +17°C° 0 mm 6 mps 754 mmHg 30%
20:00 +17°C° 0 mm 6 mps 755 mmHg 31%
21:00 +16°C° 0 mm 6 mps 755 mmHg 32%
22:00 +16°C° 0 mm 6 mps 755 mmHg 34%
23:00 +15°C° 0 mm 6 mps 755 mmHg 36%
Show more